Theta_e
324 326 327 327 328 330 331 330 330 332 332 333 329 328 329 325 329 328 329 331 329 328 327 326 327 326 327 325 324 325 324 325 325 325 325 324 326 326 326 326 327 328 327 326 327 326 330 329 329 330 330 331 330 329 331 331 332 332 331 333 332 333 336 339 337 338 335 333 338 339 341 340 337 334 335 339 339 345 345 345 346 345 345 342 343
326 326 327 327 327 330 330 330 330 328 330 332 327 326 327 328 328 329 330 331 330 330 328 328 328 325 325 324 325 323 322 321 321 324 325 325 326 325 325 325 326 327 328 327 329 329 329 328 329 328 328 328 330 330 330 331 332 332 333 330 332 331 333 337 336 337 333 328 329 332 333 337 338 336 335 338 338 342 343 344 344 346 346 346 343
325 326 327 326 327 328 329 329 329 329 329 330 329 330 330 329 329 330 330 330 330 331 329 330 329 329 328 326 325 325 326 325 324 325 326 325 326 325 325 325 325 326 328 328 328 329 328 328 328 327 328 328 329 328 330 329 330 330 331 329 328 333 333 336 335 336 330 330 332 331 328 326 333 334 339 339 339 340 342 343 343 344 345 347 343
323 326 326 326 327 327 328 330 331 330 329 330 330 329 328 328 331 332 332 331 331 331 330 331 331 330 330 330 328 327 325 327 328 326 325 324 323 325 325 326 326 327 327 327 327 328 328 328 327 327 328 329 329 327 328 327 329 329 330 330 330 327 329 333 335 334 332 329 323 326 327 328 325 326 327 333 339 340 340 339 342 338 341 344 341
325 328 329 329 328 328 329 331 333 331 331 331 330 330 329 331 331 334 333 333 332 332 332 332 331 330 330 330 329 328 327 325 325 323 324 323 323 324 324 324 325 325 327 327 326 327 328 329 327 328 328 329 329 327 327 327 329 327 329 328 328 328 326 329 332 334 332 333 330 327 326 324 323 325 328 328 337 337 339 340 334 337 337 338 337
325 327 329 329 329 329 330 331 332 332 332 332 332 331 331 331 332 335 333 333 332 332 334 332 331 330 328 325 323 323 322 322 322 321 322 323 322 324 325 325 325 326 326 327 326 327 328 328 328 326 327 327 327 327 327 327 327 328 327 328 327 330 328 327 330 334 334 335 332 331 328 323 324 328 325 320 334 340 338 340 340 336 337 337 336
328 327 327 328 329 329 330 330 332 331 332 333 333 333 333 333 335 334 333 333 333 333 333 332 332 331 330 327 325 325 322 323 325 326 324 324 325 323 323 324 324 325 327 327 327 327 327 327 327 326 326 327 326 326 325 326 325 327 328 327 327 328 330 326 327 328 332 334 334 334 332 332 331 326 322 325 320 334 338 339 337 339 336 334 335
322 326 327 328 329 330 330 331 331 331 332 333 334 334 334 334 334 334 334 333 334 334 333 333 332 332 331 330 327 325 324 324 325 326 327 325 324 324 323 323 324 325 326 326 327 326 327 326 326 327 325 326 324 323 324 324 325 327 329 329 329 328 328 326 327 329 326 327 331 330 332 330 332 332 331 326 323 322 325 335 337 339 340 338 335
321 322 326 328 329 330 331 332 333 332 333 333 332 334 335 335 335 335 334 334 335 335 334 334 333 333 332 331 326 326 327 326 326 326 325 326 324 323 323 322 323 325 326 326 328 326 327 326 325 325 325 325 323 323 324 324 325 326 327 325 327 326 327 328 327 327 329 328 329 330 330 329 329 331 331 331 325 321 321 324 325 335 337 338 337
320 324 325 328 330 331 332 333 333 333 333 334 333 334 335 335 335 335 335 335 335 336 334 334 334 333 332 331 328 326 327 327 326 324 325 325 324 323 322 321 322 323 327 327 327 327 326 327 325 325 325 325 324 324 324 324 324 325 326 327 327 325 326 326 325 325 328 330 327 329 324 327 327 325 327 329 329 328 322 322 327 322 321 330 335
318 320 322 327 330 332 333 333 333 334 334 333 333 332 334 334 335 334 335 336 336 336 335 335 335 334 332 330 329 327 326 327 325 324 324 324 323 323 322 321 322 322 325 327 327 326 326 326 325 324 326 325 324 323 323 323 324 325 327 327 326 325 325 325 326 327 326 327 328 328 327 326 325 325 321 324 323 322 323 323 324 322 322 322 329
318 318 318 324 328 332 333 333 335 335 334 334 333 332 332 333 334 334 335 336 337 336 336 335 335 335 334 332 331 330 328 326 324 323 323 323 323 321 321 321 322 322 322 323 326 326 326 325 325 324 323 324 323 324 324 323 324 325 325 325 326 326 325 325 325 324 324 324 326 327 328 328 328 328 326 326 325 325 322 322 323 325 327 325 328
318 318 319 321 321 325 326 328 331 334 334 336 335 335 334 333 334 334 335 336 337 337 336 336 336 335 335 334 333 332 330 328 326 324 324 323 323 322 321 320 320 320 320 321 324 325 325 324 324 323 323 324 324 323 323 323 323 323 323 324 324 324 323 324 322 323 323 321 322 325 327 327 328 329 329 327 327 327 325 323 324 327 322 324 327
318 318 318 320 322 323 326 326 326 329 331 333 335 336 336 335 336 335 336 338 338 338 337 336 336 336 336 335 334 333 332 331 328 325 325 324 324 323 323 321 320 321 321 321 323 325 324 324 325 324 323 323 322 322 322 323 323 321 322 320 322 322 322 323 322 322 322 322 323 322 324 324 327 329 329 327 326 326 324 324 323 325 327 325 326
317 317 317 320 323 327 327 328 329 329 331 333 334 334 335 335 335 335 333 335 337 337 336 336 336 337 336 336 335 334 332 330 330 328 326 325 325 324 324 323 322 321 321 323 324 324 325 324 323 323 322 323 322 322 321 322 321 321 320 320 320 321 321 321 320 321 320 320 321 321 322 324 325 327 328 327 328 327 326 326 324 321 322 325 324
316 317 318 321 325 327 328 327 328 328 330 332 331 333 333 333 332 333 333 334 336 336 336 336 336 336 337 336 336 335 333 332 330 329 328 327 325 324 324 324 324 323 324 323 324 324 324 323 323 322 322 322 322 321 321 320 320 319 319 319 319 319 319 319 319 319 319 320 321 322 321 321 324 324 326 327 327 328 328 328 327 325 320 317 322
316 315 317 322 324 327 327 327 327 328 329 330 332 333 333 333 333 331 333 333 334 335 335 335 336 336 335 336 336 334 334 332 330 331 330 329 328 326 325 324 326 326 324 324 324 323 324 324 322 321 321 322 321 320 320 320 319 320 319 319 318 319 320 318 319 319 319 319 320 321 320 321 322 325 326 327 328 328 328 328 329 326 324 321 317
315 317 319 321 323 323 324 325 326 327 329 330 331 334 336 336 335 334 332 332 334 334 335 336 335 334 335 335 335 335 333 332 332 331 332 329 329 327 326 325 325 326 324 323 324 323 322 322 321 321 322 322 321 320 319 319 319 319 318 318 319 320 319 319 319 319 319 319 319 320 321 319 321 323 323 326 327 328 327 327 327 329 329 323 321
316 316 317 321 321 323 325 325 324 327 330 331 330 335 335 336 336 336 334 334 335 336 336 337 336 334 334 335 335 335 334 333 333 333 333 330 327 326 325 325 326 326 325 324 323 320 321 322 322 322 321 321 321 321 321 320 319 319 319 318 318 319 318 318 319 319 318 319 319 318 320 319 321 321 323 324 326 327 327 326 326 327 327 326 325
315 316 316 319 321 323 324 325 324 326 326 328 332 334 333 335 335 335 336 336 336 336 336 336 336 335 335 335 336 334 334 333 333 333 332 330 328 326 325 325 325 326 325 323 321 320 320 320 320 320 320 320 320 320 320 320 320 319 319 318 318 318 317 318 319 319 318 318 317 317 318 319 320 320 321 322 323 325 327 326 327 327 326 327 328
316 316 317 319 323 326 327 327 325 325 326 329 330 331 331 332 333 334 334 335 335 336 336 335 336 335 336 336 336 336 335 334 334 333 333 332 331 328 326 326 325 325 324 322 321 319 318 319 319 320 319 318 318 318 319 320 319 319 319 319 318 318 316 317 318 318 318 318 317 316 316 318 319 319 319 320 322 323 325 325 326 326 325 328 328
318 318 318 319 322 326 327 326 325 325 326 328 329 330 329 329 327 332 334 331 332 333 334 334 335 336 336 336 336 336 336 335 334 334 333 332 331 328 327 325 325 325 325 322 320 319 319 319 318 318 319 319 319 318 319 319 318 318 319 319 318 318 317 317 317 316 317 317 317 316 316 317 319 319 318 319 320 322 323 323 324 325 325 327 329
319 319 319 320 322 323 323 324 323 323 324 325 327 326 326 329 327 327 328 330 331 331 331 332 333 335 336 336 336 336 336 336 335 334 334 332 331 329 327 326 324 324 325 323 321 320 318 318 317 317 318 318 318 318 320 319 318 318 317 318 318 318 317 317 317 317 316 317 316 317 317 318 319 318 318 319 322 322 323 323 324 325 325 326 328
320 320 321 322 322 323 321 322 321 321 323 325 326 325 327 328 328 328 329 331 332 332 332 332 332 334 336 336 336 336 336 336 334 334 334 333 332 329 327 325 324 324 323 324 323 320 318 318 317 316 316 317 317 318 318 319 318 318 317 317 317 317 316 316 317 316 316 316 316 316 318 319 319 317 317 318 320 321 322 323 324 324 325 324 327
318 319 320 322 321 320 319 319 319 320 321 324 323 323 325 326 327 327 327 329 329 329 329 329 331 332 334 334 335 335 335 334 334 334 334 334 332 329 326 324 325 324 323 323 322 322 320 318 319 316 316 315 316 317 317 317 318 318 318 317 317 316 316 316 316 316 317 317 316 317 317 318 318 317 318 318 320 321 322 323 322 323 323 325 326
318 319 319 320 319 319 319 321 319 320 319 321 322 322 323 324 327 329 327 327 327 327 326 328 330 331 332 334 334 334 333 334 333 334 334 333 331 328 326 326 324 323 323 324 322 321 320 318 318 316 315 315 316 317 317 316 317 318 318 317 317 317 317 316 316 316 317 317 317 317 318 319 318 318 318 319 321 323 324 323 322 323 324 325 326
318 319 319 320 320 321 320 321 320 321 321 320 320 321 321 323 325 326 325 325 326 326 326 328 331 332 330 332 333 333 333 333 333 332 332 329 328 327 325 324 325 324 323 322 322 319 320 319 318 317 316 316 316 316 317 317 317 316 316 316 317 317 316 317 317 316 316 316 316 317 319 320 319 320 320 321 322 323 323 323 322 324 324 324 325
318 318 318 318 319 320 322 322 322 320 320 320 320 321 321 322 322 324 324 326 328 327 326 327 328 330 330 330 332 332 333 332 331 331 329 328 326 326 325 325 324 324 323 322 321 320 320 320 320 318 318 317 317 316 316 316 315 315 315 316 317 316 316 316 318 318 317 316 317 317 319 321 321 322 323 324 323 323 325 325 325 324 321 323 324
315 317 317 318 319 320 322 321 322 322 321 321 320 321 323 323 322 321 322 323 325 324 323 325 326 326 327 328 330 331 332 331 330 328 327 326 326 326 325 325 324 324 325 323 322 321 319 319 319 319 318 317 318 317 317 316 314 314 315 316 316 316 316 317 317 317 317 316 317 318 319 321 323 321 320 321 321 321 322 321 323 324 324 324 324
315 316 317 318 320 320 322 323 323 322 321 320 321 321 321 321 320 320 321 322 323 324 322 323 324 325 326 326 326 329 328 328 327 326 325 326 325 325 326 325 324 323 323 323 322 321 319 319 318 318 319 319 318 318 315 315 315 315 314 315 316 317 316 316 316 316 317 317 317 317 319 318 318 320 321 319 313 313 315 319 320 322 322 322 322
315 316 317 318 319 320 321 321 322 321 321 321 321 322 322 321 320 320 320 321 320 322 323 322 323 324 325 325 325 325 326 324 325 325 325 324 324 325 325 324 324 323 323 322 321 320 320 320 319 319 319 319 318 317 311 304 302 303 316 315 315 316 316 315 316 315 315 316 316 316 318 318 319 320 321 315 311 308 308 308 310 312 316 319 321
315 315 316 317 317 319 320 321 321 321 321 320 321 321 321 320 320 319 319 322 323 322 321 322 323 324 324 323 324 324 323 323 324 323 323 324 324 324 323 323 323 323 323 323 322 320 320 320 320 320 320 319 318 314 302 302 300 298 305 315 316 315 315 314 315 314 315 315 315 316 317 318 320 321 321 320 318 312 306 305 304 304 305 305 305
317 316 316 317 317 319 321 322 322 320 319 320 320 320 319 320 320 322 322 322 322 322 321 321 321 322 322 324 322 322 322 323 323 322 323 324 323 322 322 322 322 323 323 322 321 321 320 320 320 319 319 319 319 307 301 301 299 297 297 308 314 314 313 314 314 314 315 315 316 316 316 316 318 318 319 321 320 321 313 308 309 309 308 305 299
318 318 318 319 319 320 321 323 323 322 321 321 322 320 321 322 321 321 321 321 321 321 322 320 320 320 321 322 322 321 321 322 322 323 323 322 322 321 323 323 322 322 322 321 321 320 320 320 320 320 319 320 319 311 300 300 300 297 296 298 315 312 313 313 313 314 315 316 316 316 315 315 317 320 321 320 320 318 319 319 320 320 321 319 309
319 319 320 320 321 322 323 324 324 322 323 323 321 321 322 321 322 321 321 321 321 320 321 321 321 321 322 322 322 322 322 322 322 322 323 322 321 323 322 323 322 321 321 320 320 320 321 320 320 320 320 319 320 304 301 300 299 297 295 296 315 312 313 313 314 315 316 318 316 316 316 315 317 318 319 319 318 318 318 318 318 318 319 320 321
320 320 321 322 324 324 324 324 323 323 322 321 321 322 322 321 322 321 321 321 321 320 320 321 320 321 321 321 322 322 323 322 322 322 322 321 321 322 322 323 322 322 322 321 320 320 320 320 321 320 319 318 319 302 300 299 297 297 294 313 313 313 313 313 314 314 315 317 317 316 316 315 317 317 316 302 308 315 316 317 317 317 318 320 320
325 324 324 325 328 327 326 324 324 325 324 323 323 322 323 322 321 322 321 320 321 320 319 320 320 321 321 321 321 321 322 322 322 322 321 322 321 321 322 323 322 322 321 320 321 320 321 320 320 319 319 319 319 307 298 298 297 295 299 313 313 312 312 313 314 314 314 315 316 315 315 314 315 317 306 294 295 306 315 316 316 316 317 318 318
326 327 328 328 329 329 330 328 326 327 328 325 326 325 323 322 321 321 321 321 320 319 320 320 320 320 321 321 322 321 321 321 322 321 321 322 322 323 323 323 322 320 320 321 321 320 321 321 320 319 319 319 318 312 298 299 297 295 306 313 311 312 312 312 313 314 315 316 315 315 314 315 314 317 294 297 294 307 315 315 315 314 315 315 317
327 327 327 327 328 330 330 330 330 327 328 330 331 330 326 322 321 321 321 320 320 320 320 320 321 321 321 322 322 322 322 321 321 321 323 322 322 323 323 323 323 322 321 321 320 320 320 320 321 321 319 318 317 314 301 299 298 295 304 314 312 312 312 312 313 313 316 315 314 314 315 314 313 312 293 296 293 306 314 315 314 314 313 314 316
324 328 329 329 331 331 329 329 329 328 327 326 330 328 326 323 321 322 321 320 321 321 321 322 322 323 323 323 323 324 324 323 322 322 324 323 324 324 324 324 323 321 320 320 319 320 319 319 320 321 321 321 318 317 314 299 299 296 296 311 313 311 311 312 314 313 312 312 312 313 316 298 294 293 292 291 293 294 308 312 313 312 313 312 317
322 324 324 330 330 329 327 327 327 326 325 327 330 327 325 324 323 322 321 322 322 322 322 323 323 323 323 322 323 324 325 326 326 325 325 325 325 324 324 324 323 322 321 320 321 320 320 319 320 320 320 320 320 318 315 300 299 297 294 300 313 312 312 312 312 312 311 311 311 311 312 299 294 295 293 292 293 293 296 308 312 312 314 315 307
324 326 327 329 328 329 329 328 329 328 328 329 329 326 324 323 323 323 324 324 322 322 323 324 324 323 323 323 323 325 327 327 327 326 326 325 326 326 325 325 322 321 321 321 321 320 319 318 319 320 320 320 320 317 316 304 298 297 295 294 311 312 312 311 310 311 311 312 312 311 313 305 298 299 297 294 293 293 292 305 311 301 298 297 311
325 328 327 325 326 328 328 329 328 330 330 329 329 326 324 324 323 325 326 324 322 324 324 324 323 323 323 323 324 325 328 328 328 327 326 325 325 325 326 325 324 323 322 321 321 320 319 317 318 318 319 320 320 318 307 312 301 297 295 294 295 306 303 316 311 310 311 311 312 313 312 308 298 295 294 293 293 292 294 304 298 297 297 294 298
324 326 328 328 324 323 325 328 327 328 330 329 328 325 324 323 324 327 327 326 326 327 326 323 325 324 323 323 323 324 327 328 327 327 325 325 324 324 324 324 323 322 320 320 319 319 318 318 317 317 318 318 319 320 310 304 309 296 295 294 293 292 294 312 315 313 313 312 312 314 311 294 294 294 293 294 294 295 302 297 295 293 293 294 304
325 325 326 326 325 325 324 325 326 328 331 328 327 325 324 324 326 327 325 325 327 326 326 325 325 324 324 323 323 323 324 325 326 326 324 322 324 324 322 323 323 321 320 319 318 318 317 317 316 317 317 317 318 317 319 310 300 299 294 294 293 292 292 292 309 313 314 314 306 294 294 294 294 293 292 293 296 297 293 291 292 292 299 310 313
325 325 326 325 325 324 324 324 325 328 329 328 327 326 324 325 327 326 325 324 326 326 326 325 324 324 324 324 323 324 324 324 326 324 323 322 322 321 321 321 320 319 319 319 317 318 317 316 316 316 317 318 318 318 318 320 307 306 300 293 292 292 294 293 301 311 299 292 291 293 292 291 292 296 307 311 310 310 300 295 294 297 313 314 313
325 327 324 325 325 323 322 323 324 326 327 328 329 327 326 326 326 325 325 327 325 325 324 324 324 323 324 324 323 321 320 322 325 324 322 321 321 321 321 319 319 319 319 317 318 317 317 316 316 316 317 317 319 318 318 319 318 317 317 312 300 300 295 294 299 308 306 309 308 304 306 300 300 297 298 299 301 302 307 312 313 314 315 314 313
328 328 326 326 324 323 322 323 322 325 326 326 328 328 327 327 326 325 325 326 325 324 324 324 324 324 322 322 324 314 318 318 319 322 321 320 320 321 319 319 318 318 317 317 318 316 316 317 316 317 317 317 317 317 318 317 317 316 316 316 316 315 314 312 312 313 314 314 314 305 302 308 309 310 310 312 311 312 310 308 312 313 314 314 315
324 326 326 325 323 323 324 324 324 325 326 326 327 328 328 329 328 326 327 326 325 322 323 324 323 322 322 322 322 321 321 319 319 320 321 321 319 320 320 321 322 323 320 320 319 318 317 319 318 317 316 316 316 316 319 307 322 302 313 316 316 314 315 316 309 298 313 314 314 312 309 309 309 307 307 308 307 307 306 307 309 312 314 314 315
325 326 326 326 325 324 324 324 324 325 325 324 325 326 327 327 327 327 327 326 325 324 324 323 322 321 321 322 322 320 320 319 319 318 319 321 309 307 316 321 319 310 303 300 301 316 320 320 319 319 321 317 316 319 294 296 297 298 296 296 297 295 293 304 296 290 305 309 309 309 310 309 308 307 307 306 306 307 307 304 305 305 311 313 313
323 324 323 324 325 324 324 323 324 324 324 323 323 323 324 325 325 326 325 324 324 322 321 321 320 320 317 321 321 321 320 320 319 319 319 318 318 322 299 297 300 304 304 300 295 295 295 294 306 315 315 305 301 300 297 298 295 295 295 294 294 295 294 292 290 308 308 307 305 306 306 307 306 308 306 307 306 307 307 304 303 305 311 311 309
Wind_Speed
12 9 7 5 7 7 7 7 8 8 9 8 7 7 6 8 6 6 5 5 4 3 1 2 2 2 2 3 3 4 4 4 4 6 6 6 6 6 6 5 7 7 6 5 4 2 3 4 3 4 5 4 5 4 4 5 5 5 5 4 5 4 2 2 2 3 4 5 4 5 4 4 5 4 7 6 7 4 3 3 3 3 4 4 2
9 8 9 9 9 8 7 7 8 10 9 9 10 9 9 9 7 6 5 5 4 2 1 1 0 2 2 4 3 4 4 5 5 5 6 5 5 6 6 6 6 6 6 5 4 6 4 4 4 4 4 3 4 4 5 5 5 5 5 4 3 4 3 3 3 4 2 3 5 4 4 3 4 4 7 6 7 4 4 3 3 3 4 5 4
9 9 9 12 11 10 9 8 8 10 10 11 10 9 9 9 8 6 4 4 4 3 3 2 1 1 2 3 3 3 2 3 4 5 5 5 5 5 6 5 6 6 6 5 3 2 4 3 4 4 5 5 5 5 4 5 5 5 6 5 5 4 3 2 2 3 3 4 5 6 3 3 1 3 3 5 5 4 4 3 3 5 5 4 3
12 10 9 11 11 11 10 9 9 9 10 11 11 11 9 9 8 7 5 5 4 4 2 2 2 2 2 1 2 3 4 2 2 5 5 6 6 5 5 5 6 6 6 6 6 6 4 5 4 4 5 4 4 4 5 6 6 5 5 5 5 5 3 2 2 3 3 4 4 3 4 4 5 1 2 4 3 5 5 5 4 5 4 4 4
3 7 8 9 9 9 10 9 9 9 10 10 11 10 8 9 9 8 5 5 5 5 5 4 3 3 3 3 2 2 2 1 3 5 4 5 5 6 5 6 5 6 5 5 4 4 3 3 5 5 5 6 4 4 5 5 6 6 6 5 6 6 6 4 2 2 2 1 3 5 3 3 2 3 5 5 2 3 4 4 5 4 3 4 4
1 3 6 7 6 6 7 8 8 8 9 9 9 9 9 8 9 8 5 4 5 7 6 4 3 3 2 2 1 1 2 3 5 4 4 5 5 5 5 6 6 5 5 5 5 5 6 5 5 5 5 5 5 5 5 5 5 6 6 6 6 6 7 6 5 0 2 1 2 4 3 4 4 5 5 2 3 2 2 2 4 6 3 4 6
4 2 3 5 5 5 6 7 8 8 7 7 8 9 10 9 8 7 6 4 5 6 7 5 4 3 3 3 2 2 3 2 3 3 2 4 5 4 5 5 6 5 5 4 4 4 4 4 5 5 5 3 4 5 5 6 6 6 6 6 6 6 7 6 5 6 4 1 3 2 2 3 5 5 4 4 5 1 1 1 2 3 5 6 6
3 3 2 2 3 4 5 6 6 6 6 6 7 7 9 9 9 8 6 5 5 6 7 6 5 3 4 4 2 2 2 3 2 2 2 3 6 5 5 5 5 5 5 4 4 4 4 4 4 5 5 5 5 5 6 5 5 5 5 6 6 6 6 7 7 5 6 5 5 5 4 5 4 5 7 5 6 7 5 1 1 2 3 5 6
3 3 2 2 2 3 4 4 4 5 6 6 7 7 7 8 9 8 8 7 6 7 7 7 6 4 4 3 3 2 2 2 1 2 3 3 5 6 4 5 5 5 5 4 3 4 4 4 3 4 5 5 5 5 5 6 6 6 6 6 5 5 5 6 6 5 5 4 6 5 4 4 2 4 4 4 5 5 6 3 5 3 5 4 4
4 4 3 3 2 3 3 3 4 5 5 6 6 6 7 7 8 9 9 7 7 8 7 7 7 6 5 5 5 3 2 2 2 1 2 3 5 5 4 5 5 6 5 5 5 4 4 3 3 4 5 5 6 6 6 6 6 6 6 6 5 6 5 5 6 6 5 5 5 4 5 3 4 4 5 4 3 5 7 4 3 6 7 3 1
4 2 4 4 4 3 4 5 5 5 5 5 6 6 6 7 7 9 9 7 8 8 8 7 7 6 6 6 5 4 3 3 2 1 2 1 4 5 6 6 4 5 5 3 4 4 4 3 3 4 4 4 6 6 6 6 6 6 5 5 5 5 4 5 5 5 6 6 6 5 5 4 5 5 3 4 5 5 5 5 3 6 6 7 7
3 4 4 4 4 3 3 3 4 5 5 5 5 5 5 6 7 8 8 8 7 7 7 7 6 7 6 6 6 4 4 3 3 2 2 3 3 4 5 6 5 4 5 5 4 5 4 3 2 2 4 5 5 5 6 7 6 6 5 5 5 5 5 5 5 5 7 6 6 6 6 6 6 4 4 5 6 6 5 7 6 5 4 4 6
3 3 3 2 2 2 2 2 2 3 3 4 4 4 4 5 6 7 6 7 7 7 7 7 6 6 5 5 6 5 5 5 4 3 2 2 2 3 4 6 5 5 5 6 5 5 3 2 3 3 4 4 5 6 6 7 7 6 5 5 5 6 5 6 5 5 7 6 7 6 6 5 6 5 5 5 5 5 6 7 7 5 6 5 6
3 2 3 2 0 1 1 0 0 1 2 2 3 3 3 3 5 6 5 5 6 6 6 6 6 5 5 5 5 5 5 5 4 4 2 3 3 2 4 5 5 4 5 6 6 5 4 3 3 3 4 4 5 6 6 6 6 6 5 5 6 5 5 6 6 6 6 7 6 7 7 7 6 5 5 5 6 6 6 6 7 6 6 6 6
2 3 3 2 1 1 1 0 0 1 1 1 2 2 2 2 3 3 3 4 4 4 4 5 5 5 6 5 5 5 5 4 4 3 4 4 3 3 3 4 4 5 5 5 5 4 3 3 3 3 3 4 4 5 5 6 6 6 5 5 5 4 5 5 6 6 6 7 7 7 7 7 6 6 5 6 6 6 6 6 6 8 8 6 6
2 2 2 3 2 2 2 1 1 1 1 1 1 1 1 1 1 1 1 2 3 4 4 4 4 4 5 6 6 6 5 4 4 5 5 5 4 4 3 2 3 3 4 4 5 5 3 3 2 3 4 5 4 4 5 5 5 4 4 4 5 4 5 5 5 6 6 7 7 7 8 8 7 7 7 7 7 6 6 5 6 6 7 8 6
3 3 3 3 3 3 2 1 1 1 1 2 2 2 2 1 1 1 1 2 2 3 3 3 4 4 5 6 5 6 6 6 6 6 7 7 6 4 3 3 2 2 3 3 5 6 3 3 3 3 3 4 4 4 4 4 4 4 4 4 4 4 4 5 5 5 6 6 6 7 7 8 8 7 7 7 8 7 6 6 6 6 6 7 8
3 2 3 4 4 3 2 1 0 1 1 1 2 2 2 2 2 3 2 3 3 3 4 4 4 5 5 5 6 6 6 7 7 6 7 7 6 4 4 3 3 2 2 4 5 5 3 1 2 3 3 3 4 3 3 4 4 4 4 3 3 4 5 4 5 6 6 6 6 7 7 7 7 8 8 8 8 8 8 7 7 7 6 8 7
2 2 2 4 3 3 2 2 1 1 1 2 2 2 3 3 3 4 4 4 4 3 4 4 5 4 4 6 7 7 7 6 6 6 6 7 6 5 4 3 3 2 3 3 4 6 4 3 2 3 3 3 4 4 4 3 3 4 4 4 4 4 5 5 4 5 5 7 8 8 7 7 8 8 9 8 8 8 8 8 7 7 8 8 8
1 2 2 3 3 2 3 2 2 2 2 3 3 3 5 5 5 5 5 5 5 5 5 5 5 5 5 5 6 6 7 6 6 6 7 7 6 4 5 4 4 3 2 2 4 5 4 3 3 3 3 4 4 4 4 5 4 4 4 4 4 6 6 6 5 5 5 5 7 8 9 8 8 8 8 8 8 8 8 8 8 8 8 7 7
1 1 1 1 2 3 3 2 2 2 3 3 4 5 5 5 6 6 7 7 7 6 6 6 5 6 6 7 6 6 6 6 6 6 7 6 6 5 5 4 4 4 2 3 4 4 5 4 3 3 4 3 4 4 4 4 5 5 5 5 6 6 7 6 6 6 6 7 7 8 8 9 9 9 9 8 8 9 8 8 8 8 8 7 7
0 1 1 1 1 1 3 3 2 2 2 3 4 4 5 5 5 5 6 5 6 5 5 5 5 5 6 6 6 6 6 6 6 6 7 6 6 6 5 5 4 4 4 4 4 4 4 4 3 4 4 5 5 5 5 5 6 5 5 5 6 6 6 7 6 6 6 6 8 8 9 9 8 8 9 10 8 8 8 8 8 8 7 8 6
1 2 2 1 1 2 1 1 1 1 0 1 2 4 4 5 5 4 5 4 4 4 4 4 5 5 6 6 6 6 6 6 6 6 6 6 6 6 6 5 5 4 4 4 4 4 4 4 4 4 4 5 6 6 6 6 6 6 6 5 6 7 7 7 7 7 7 8 9 8 9 8 6 7 8 9 9 9 8 9 9 8 8 7 7
3 3 3 3 3 3 4 3 3 1 1 1 1 2 3 3 4 3 4 3 3 3 3 4 4 5 5 5 5 5 5 5 6 5 6 6 6 6 5 6 5 4 4 4 4 4 4 4 5 6 5 5 6 6 6 6 7 7 7 7 6 7 7 8 8 7 7 8 8 9 8 9 8 7 7 7 7 8 8 8 9 8 8 8 7
4 4 3 3 3 4 4 2 2 1 1 1 2 1 1 2 2 3 2 2 2 2 3 3 4 5 5 5 5 5 5 6 5 4 5 6 6 5 5 6 5 5 5 5 4 5 5 5 4 6 6 6 6 6 7 7 7 6 7 8 8 7 7 8 7 7 8 9 8 9 9 8 7 7 7 6 6 7 8 8 8 8 7 7 7
5 4 4 4 4 4 3 3 4 1 3 2 2 2 1 1 2 1 1 1 1 1 2 3 3 4 4 5 4 5 5 5 5 5 5 5 5 6 5 5 6 6 5 5 6 5 5 5 5 6 6 6 6 6 7 8 8 7 7 7 8 8 8 8 8 7 8 8 9 9 9 8 8 7 6 7 7 8 7 8 9 8 8 7 8
5 5 4 4 5 4 4 3 3 3 3 2 2 3 2 1 2 2 1 1 1 2 3 3 2 3 3 3 3 4 4 4 4 4 4 4 5 5 5 5 5 6 6 5 6 6 5 5 6 5 6 6 6 6 7 6 7 7 8 8 8 8 8 7 7 8 8 8 9 9 8 8 7 7 8 8 8 8 7 8 8 8 8 7 7
5 5 5 5 4 3 4 4 3 4 2 3 3 2 2 2 2 2 1 1 1 2 3 2 1 1 1 2 2 3 3 3 3 4 4 4 4 4 5 5 5 6 6 6 6 6 5 5 6 6 6 6 6 6 6 6 6 7 7 7 8 8 8 7 8 7 8 8 9 9 7 8 8 8 7 7 8 7 6 6 5 5 6 6 6
5 5 5 4 5 3 3 4 3 4 4 4 4 3 2 3 3 2 2 2 2 3 3 2 2 2 1 1 2 2 2 3 4 4 4 4 4 4 4 5 5 5 5 6 6 6 6 6 6 6 6 5 4 4 4 4 7 7 7 7 7 8 7 8 8 8 8 8 9 9 8 8 8 8 9 9 7 6 6 7 7 7 7 7 7
5 5 4 3 4 4 4 4 4 4 4 4 3 3 3 2 3 2 2 2 2 2 3 3 4 2 2 2 3 3 3 3 4 4 4 4 4 4 4 5 5 5 5 6 6 6 6 6 6 6 6 4 4 4 2 1 4 6 7 6 6 7 7 8 8 8 8 9 9 9 9 9 9 9 9 6 5 5 4 6 7 7 7 7 7
5 5 5 5 4 4 4 5 5 4 4 4 3 2 2 4 3 3 2 2 3 2 3 3 4 2 2 3 3 4 4 5 4 4 4 5 5 4 4 5 5 5 5 6 6 7 7 6 7 7 6 5 4 3 7 5 6 6 6 6 7 8 8 8 8 8 8 8 8 9 9 9 9 9 8 8 9 9 7 6 7 9 10 9 8
6 6 5 5 5 5 5 6 5 4 4 4 4 4 4 4 3 3 2 1 2 3 4 3 3 3 4 4 4 4 4 4 4 5 5 4 4 5 5 5 5 5 5 5 6 7 6 6 6 7 7 6 6 5 8 7 7 6 6 7 7 7 8 8 8 8 8 8 8 9 8 8 8 8 8 8 9 10 10 9 9 8 9 10 10
6 6 6 6 6 6 5 6 6 5 5 5 5 5 4 4 3 3 3 3 3 3 3 4 3 4 4 3 4 4 4 4 5 5 4 4 5 5 5 5 6 5 5 6 6 6 6 6 7 8 7 6 7 9 11 9 8 6 6 6 8 8 8 9 9 9 9 9 8 8 9 8 8 9 9 9 9 6 11 11 11 11 11 12 12
7 6 6 6 6 6 6 6 6 6 5 4 4 4 4 4 5 4 4 4 5 4 4 4 4 4 4 4 4 5 5 5 5 5 5 5 5 6 5 5 5 5 6 6 6 7 7 7 7 7 7 7 6 8 10 9 8 7 6 7 8 9 9 9 9 9 8 9 9 9 9 9 8 9 8 8 8 7 8 7 7 8 8 10 14
7 7 7 6 6 7 7 6 7 7 6 5 6 6 6 6 6 6 6 6 5 6 5 4 5 5 5 5 5 5 6 5 5 5 5 6 6 6 6 6 5 6 6 6 6 7 6 7 7 7 7 6 5 8 9 8 8 6 6 7 7 9 9 9 9 9 9 9 9 9 9 10 10 9 8 3 6 8 7 7 8 9 9 10 8
7 7 7 6 6 7 7 8 7 7 7 7 7 7 6 7 6 7 6 7 7 6 6 5 6 6 7 6 7 7 7 7 7 6 7 7 7 7 7 6 6 6 6 6 6 6 7 7 7 7 7 7 6 11 9 9 9 7 7 6 8 9 8 8 9 9 8 8 9 9 9 9 10 11 2 8 3 5 7 8 9 9 10 9 9
6 6 6 6 5 6 7 7 7 8 8 8 8 7 8 8 8 8 8 8 7 8 8 7 7 7 7 7 7 8 7 8 8 8 8 8 8 8 7 6 6 6 6 7 7 7 6 7 7 7 7 7 7 9 12 10 9 7 7 7 8 8 8 8 8 9 9 9 9 9 8 10 9 10 7 7 4 4 7 9 10 10 10 10 10
6 5 5 5 5 5 5 6 8 8 8 8 8 8 8 9 9 9 9 9 9 9 8 8 8 8 8 8 8 8 9 9 9 9 9 8 8 8 8 7 7 7 7 7 7 7 7 7 7 7 7 7 7 5 12 10 8 10 7 7 8 8 9 8 8 9 8 8 9 7 5 8 9 5 7 3 4 4 9 10 10 10 11 11 10
6 6 7 6 6 6 6 6 7 9 9 9 8 8 8 10 10 10 10 10 10 9 9 9 8 8 8 8 8 9 9 9 10 10 9 9 9 8 8 7 7 8 8 8 8 7 7 7 7 7 6 8 7 5 10 10 9 10 7 6 7 8 8 8 8 8 7 8 7 6 10 6 3 4 2 3 4 5 8 9 10 10 11 11 10
6 6 7 6 5 5 6 8 9 10 11 10 8 8 9 10 11 11 11 11 10 10 10 9 8 8 7 8 8 8 8 8 10 9 8 8 8 8 8 8 8 9 9 9 9 8 8 8 6 7 6 7 7 7 7 12 10 10 9 6 7 7 8 8 8 7 7 8 7 7 8 9 5 4 4 5 6 6 7 8 8 9 10 12 9
6 7 6 6 7 8 9 10 10 11 10 8 8 8 9 10 11 11 12 12 11 10 10 9 8 8 8 8 7 7 8 7 7 7 7 7 7 8 8 8 9 9 9 8 8 8 8 8 7 7 7 7 7 7 7 11 10 11 10 8 6 7 7 7 7 8 8 7 6 5 3 10 6 4 4 6 7 8 8 8 9 9 10 9 10
6 4 6 6 7 8 9 10 10 10 9 8 8 9 10 10 10 11 12 12 12 11 9 8 8 9 8 7 7 6 6 6 6 6 7 7 7 7 7 8 8 9 10 10 10 9 9 9 8 8 8 8 8 11 8 11 12 12 11 12 7 7 5 7 7 8 8 7 6 5 6 5 3 2 5 6 8 9 8 8 9 12 12 12 10
8 8 9 8 8 9 10 12 11 11 9 9 9 10 10 10 11 12 11 12 11 10 9 9 8 8 7 7 7 7 6 5 5 6 7 8 7 7 7 7 7 8 9 10 10 10 10 10 9 9 8 8 8 8 13 10 12 12 13 11 12 9 3 6 7 8 8 7 7 5 4 8 2 4 7 8 9 10 8 10 15 15 13 10 7
10 10 9 10 10 11 11 11 11 10 10 10 10 10 10 10 12 11 11 10 9 9 9 9 8 8 7 7 7 8 7 6 7 6 6 7 7 7 7 7 7 7 8 9 10 9 10 10 10 9 8 8 8 8 11 15 11 14 12 13 12 12 9 8 7 7 8 7 7 6 3 6 6 8 10 11 12 11 9 12 11 11 10 8 6
9 9 10 10 11 12 12 12 11 11 10 10 10 11 11 12 11 10 11 10 9 9 8 8 9 8 8 7 8 8 8 7 6 6 6 7 8 8 8 7 7 7 8 9 9 9 9 9 9 9 9 9 8 8 7 12 15 13 12 12 12 11 12 10 7 9 9 7 4 4 5 8 8 9 11 14 13 14 13 11 10 11 10 6 6
8 9 9 10 11 11 11 12 13 12 10 10 10 11 12 12 11 11 11 10 9 8 8 9 9 8 8 7 8 8 8 8 7 6 7 7 8 8 7 7 7 7 8 8 8 9 9 9 9 9 9 8 8 7 8 6 10 10 10 12 13 13 12 13 14 10 10 7 6 7 8 10 11 11 10 8 8 5 0 7 9 9 5 4 4
9 9 7 8 9 9 11 12 13 12 11 11 11 11 12 12 12 12 11 10 10 9 9 9 9 9 8 8 8 8 7 7 7 7 7 8 8 8 8 8 8 8 8 8 8 8 8 9 9 9 8 8 8 8 7 8 7 7 8 9 8 7 10 8 7 9 10 9 9 10 9 9 10 11 13 14 11 7 7 6 5 5 5 4 5
8 7 6 7 8 9 10 11 11 11 10 11 11 11 12 12 12 12 11 10 10 10 10 10 10 9 8 8 8 6 6 8 8 8 8 8 8 8 8 8 8 7 7 7 8 8 8 8 8 8 8 7 8 8 8 8 7 7 8 6 8 8 8 7 8 9 8 8 7 8 11 10 9 10 10 10 8 8 3 3 3 4 5 4 2
7 6 6 7 7 8 10 10 11 9 9 9 10 11 11 12 11 11 10 10 10 11 11 11 10 9 9 8 8 7 7 8 8 8 8 8 8 8 8 8 8 8 7 7 8 8 7 7 7 8 8 9 8 9 5 5 5 6 2 4 6 7 6 7 5 8 6 6 6 8 8 9 8 8 8 7 6 5 3 3 4 4 5 5 4
7 5 5 7 8 9 10 10 10 9 9 9 9 9 9 9 9 9 9 10 10 9 10 10 10 10 9 8 8 8 8 8 8 8 8 8 7 7 7 7 8 2 1 3 2 6 6 5 6 7 7 8 8 2 8 9 7 4 2 2 5 7 5 5 5 5 3 7 8 9 8 9 9 7 8 8 7 5 4 4 4 5 5 4 4
6 6 7 8 8 9 9 10 10 8 8 8 8 9 9 8 8 8 9 11 11 10 10 10 10 10 10 9 8 8 8 8 8 8 8 8 7 8 12 11 8 3 2 4 7 10 12 9 5 7 6 3 7 6 4 5 6 5 5 4 5 5 6 4 5 3 6 8 9 9 8 8 8 8 9 9 7 6 5 4 5 5 6 5 5
Wind_Direction
197 197 191 229 227 221 216 211 208 207 203 184 172 194 227 237 203 200 195 191 210 206 191 357 5 98 83 54 46 48 33 37 46 30 21 32 18 21 15 13 12 18 8 7 359 330 346 8 360 349 342 358 352 352 353 344 340 326 322 308 307 312 333 7 5 314 302 281 268 276 276 249 238 238 270 280 269 248 239 217 211 212 204 197 225
175 204 176 201 217 213 216 212 203 204 202 191 186 201 206 223 223 213 204 206 221 245 153 179 115 39 30 40 34 43 34 33 30 35 26 30 17 18 18 21 14 14 15 8 359 8 350 19 357 347 331 346 341 349 5 0 4 359 339 311 298 309 326 11 33 321 265 330 312 304 278 244 223 224 255 249 245 250 253 225 195 219 218 193 182
200 214 193 198 214 210 212 213 206 207 203 200 196 206 206 211 218 219 215 221 207 199 224 168 137 92 25 67 14 40 86 39 36 25 31 25 26 19 15 16 15 13 10 3 13 37 340 8 6 5 7 7 353 354 11 6 8 5 359 346 327 321 300 9 5 30 329 322 289 275 293 321 175 251 240 256 264 253 261 263 219 218 216 214 162
195 208 206 204 209 212 213 209 207 205 210 208 208 206 209 220 213 213 217 218 204 191 212 170 147 138 141 113 103 360 21 60 43 34 32 28 31 21 19 15 11 9 12 4 16 26 8 16 358 22 355 12 354 355 9 9 5 8 5 359 346 321 313 1 21 1 349 330 280 309 321 301 300 356 18 320 260 252 243 246 249 234 214 194 158
181 201 201 206 209 214 213 209 204 207 205 210 211 210 210 211 210 215 226 216 204 186 200 195 173 191 187 182 190 183 203 333 37 37 32 35 26 23 14 9 16 10 6 359 12 27 22 33 9 7 10 10 348 7 15 10 4 11 8 355 4 350 328 340 337 352 19 135 283 288 265 254 302 320 11 290 239 242 221 217 238 271 224 182 169
83 185 196 210 220 211 211 204 205 209 211 214 213 213 217 216 213 215 223 217 204 198 199 200 214 240 241 280 298 301 357 7 35 30 23 22 21 17 20 6 14 13 1 12 356 24 8 14 11 10 17 10 1 359 15 1 13 5 9 0 353 354 338 321 0 70 295 127 287 283 306 321 323 339 324 298 312 277 311 245 224 212 231 214 167
115 141 186 209 214 219 211 209 206 212 215 208 212 215 218 224 219 218 223 215 202 203 197 204 215 224 238 273 303 309 330 15 38 35 26 16 24 20 22 10 5 12 1 10 352 2 5 10 25 13 21 15 14 12 9 3 359 14 3 4 354 351 349 335 352 5 317 191 341 300 309 265 275 300 307 316 299 232 3 351 269 217 206 210 201
69 117 165 213 221 219 213 207 209 211 209 206 207 215 219 220 220 218 218 216 203 198 203 209 217 214 226 239 252 248 266 334 16 28 23 9 16 23 22 21 7 5 0 5 355 356 14 5 27 25 15 11 21 16 10 2 356 5 356 1 360 352 352 353 345 356 359 355 324 297 228 239 265 277 270 270 287 297 294 337 278 312 262 227 212
46 62 106 170 199 208 208 203 201 201 205 205 208 208 215 219 220 218 219 215 207 210 209 206 217 212 224 234 240 230 238 254 286 356 14 19 4 19 25 23 16 15 6 2 355 3 13 23 18 26 15 9 11 13 4 359 359 357 352 354 359 354 351 355 347 354 351 350 343 306 307 286 264 246 268 283 280 284 284 302 319 323 310 277 242
62 76 91 110 139 156 178 183 183 192 200 210 217 210 207 211 216 218 219 218 214 211 216 216 214 218 231 237 247 254 235 243 284 359 330 2 357 18 14 25 19 17 9 4 357 1 25 11 20 27 17 6 358 357 346 347 348 348 353 346 350 346 350 345 346 351 341 337 335 329 297 305 302 296 275 258 258 244 274 295 295 335 300 275 233
50 62 104 98 115 134 159 175 173 182 193 209 212 213 206 211 218 221 222 222 216 216 215 218 217 223 238 244 249 255 248 245 259 288 319 323 350 10 11 14 21 19 8 4 7 351 9 19 23 27 24 1 347 346 347 347 345 342 348 345 347 339 343 332 331 345 343 332 337 332 315 308 304 314 331 301 292 285 273 268 265 210 233 285 277
62 16 59 97 120 125 144 146 158 168 183 195 206 211 213 210 212 222 223 222 222 219 220 221 223 225 241 247 248 250 253 251 240 269 305 312 341 347 6 6 14 18 14 4 354 348 2 31 14 18 7 355 350 346 341 346 340 343 339 337 336 337 326 332 320 324 326 319 327 330 327 313 296 297 309 315 296 295 295 287 290 277 256 247 285
70 48 56 91 124 124 121 95 126 151 170 185 192 205 216 222 220 224 225 219 218 217 216 218 224 232 236 240 245 241 241 246 254 249 277 290 291 323 357 2 9 5 13 5 2 341 339 327 337 357 1 356 351 341 345 343 342 332 339 331 335 330 332 330 317 325 319 315 311 317 314 316 313 314 302 299 300 288 288 290 281 282 272 268 251
97 67 45 34 61 147 119 138 154 161 160 167 171 197 209 211 217 226 227 208 208 209 216 222 225 230 231 238 241 236 231 237 249 250 255 282 289 304 332 360 359 3 5 1 2 346 331 333 340 355 1 355 344 348 346 346 347 334 338 340 332 334 327 323 308 317 307 310 309 300 307 310 308 321 310 299 293 294 288 289 298 284 275 276 271
104 52 51 54 98 98 111 119 328 233 202 182 190 182 193 208 200 211 202 180 195 207 213 224 226 221 225 225 230 229 232 224 232 224 219 251 268 271 302 339 351 358 357 357 353 351 333 304 311 320 331 338 342 348 346 351 356 344 353 349 335 335 324 325 318 314 305 305 306 298 298 298 300 303 311 295 289 287 295 299 298 297 290 272 266
42 69 87 99 107 124 129 146 176 205 220 213 211 202 212 225 215 224 211 166 183 197 211 217 222 221 216 223 224 228 235 234 232 216 206 230 265 259 271 281 331 346 352 346 347 350 340 306 296 321 325 332 338 349 356 1 358 352 349 350 347 345 336 339 341 324 322 314 302 300 293 291 295 296 288 290 289 290 289 286 285 289 291 290 288
7 14 48 113 124 135 155 144 185 204 207 197 206 214 239 243 241 235 226 212 213 213 223 221 223 225 220 219 224 221 224 230 233 229 213 212 239 249 269 289 301 314 340 344 340 355 337 333 312 316 322 329 334 346 352 356 358 358 346 344 340 342 335 343 335 334 329 326 315 309 298 292 285 282 281 281 283 282 279 283 284 280 289 290 291
14 26 76 89 94 105 110 115 158 248 262 222 221 223 232 251 247 248 238 234 223 224 224 225 225 229 225 222 223 225 228 227 227 231 211 215 225 238 243 266 265 304 325 335 340 343 343 297 294 294 317 324 330 326 341 334 351 348 345 330 333 330 329 326 329 331 330 324 321 317 312 297 292 288 281 281 283 283 281 280 281 279 270 270 278
354 30 93 121 102 108 106 110 107 191 219 240 217 212 227 231 232 239 239 234 233 228 223 220 224 222 222 220 218 218 223 227 223 221 213 221 228 232 230 243 246 266 300 323 332 345 355 328 292 299 308 321 320 321 319 314 325 317 332 329 329 321 317 320 324 321 325 320 322 319 314 307 301 294 286 281 278 274 273 275 279 279 274 273 279
314 52 67 81 97 92 112 134 170 172 192 186 204 213 219 222 222 227 229 227 223 220 219 223 217 218 217 218 214 217 216 217 215 213 218 220 230 232 214 217 235 255 289 294 325 341 342 318 309 296 292 300 308 311 306 307 306 298 304 306 318 315 310 311 316 318 320 314 313 314 312 308 306 299 290 283 277 272 274 276 273 274 275 271 271
7 359 50 118 117 128 142 164 177 191 165 189 192 205 210 209 215 215 214 212 214 214 214 217 213 215 218 217 214 214 214 217 215 213 221 222 221 224 221 224 221 231 247 286 309 333 349 325 307 300 300 285 286 295 309 305 298 298 298 301 304 306 306 309 313 316 315 312 315 314 310 308 310 302 296 285 272 273 270 269 269 271 270 267 266
294 218 244 314 42 145 154 172 193 206 208 218 210 213 216 213 217 205 207 213 212 208 214 213 215 221 223 222 221 218 213 216 214 214 219 217 211 223 224 226 233 226 233 279 300 335 331 335 328 309 305 307 306 306 303 301 299 304 306 307 303 302 301 306 312 308 313 316 316 314 316 315 311 303 295 286 276 267 268 270 269 268 269 271 270
270 259 253 248 276 293 184 206 224 282 268 233 240 240 233 219 231 206 210 207 210 218 222 223 223 223 223 226 225 220 215 213 215 218 217 214 210 218 218 224 224 230 230 262 288 305 314 330 323 315 314 316 308 305 306 295 295 297 297 295 301 310 309 303 298 304 315 316 310 317 317 317 313 301 295 287 282 271 267 268 271 269 271 277 277
241 234 236 236 243 218 233 211 229 179 170 189 247 239 210 222 224 212 209 210 212 221 229 234 235 234 232 230 228 226 221 217 218 219 218 212 212 215 220 226 223 231 245 254 268 271 288 294 310 317 317 309 313 307 295 295 294 296 295 297 298 298 301 304 304 308 312 308 311 315 319 317 314 303 290 284 274 260 256 263 269 270 277 280 277
261 261 253 250 251 261 268 291 290 274 198 179 268 308 192 183 204 215 208 197 213 217 243 246 242 243 232 229 226 222 218 216 221 222 213 209 210 216 220 222 226 230 244 257 252 269 282 286 295 302 309 311 313 310 308 297 289 284 287 290 292 293 296 296 299 302 303 303 311 312 316 314 310 302 293 283 274 264 262 265 272 283 284 287 281
266 273 269 276 287 286 274 249 277 267 273 198 224 243 260 209 153 171 241 220 219 284 288 281 268 256 240 227 223 217 216 214 212 212 209 206 208 217 215 221 227 234 240 242 261 263 270 278 282 296 311 313 307 315 307 304 296 287 282 283 285 288 289 291 295 298 304 307 308 310 314 310 305 299 294 292 285 275 278 275 279 280 281 277 281
270 273 280 273 266 266 272 243 268 282 271 271 251 249 252 242 204 218 243 296 324 305 299 290 283 272 253 223 207 201 196 197 196 198 195 205 211 213 221 226 226 236 239 248 250 259 247 263 282 291 291 311 316 314 305 298 294 288 284 282 282 284 285 290 295 296 299 301 304 307 308 304 294 293 294 291 290 294 280 284 283 285 278 276 284
247 246 251 262 273 270 247 231 227 257 261 265 244 257 290 307 291 254 227 252 268 287 293 294 267 226 222 177 186 175 180 188 187 194 203 209 205 213 225 233 233 234 241 246 255 249 252 255 277 296 303 300 303 306 303 306 302 298 291 287 285 280 284 289 291 289 295 300 301 302 304 297 301 305 303 307 303 292 311 286 290 293 289 294 292
269 260 254 257 272 262 235 229 223 231 245 247 256 240 229 259 268 271 264 254 269 277 279 256 226 240 206 182 166 176 184 178 193 196 200 198 213 221 228 235 235 241 242 250 249 248 249 252 265 275 284 301 304 296 285 318 314 304 298 290 286 284 287 290 291 290 292 293 296 302 301 297 317 321 302 292 301 328 309 307 310 311 305 297 289
270 271 272 271 277 265 228 224 224 231 238 234 237 263 271 269 262 252 252 237 256 264 275 253 239 213 202 198 180 174 191 192 198 202 202 208 216 221 230 237 239 244 240 237 246 250 254 255 265 278 283 291 289 279 76 67 295 296 302 297 285 280 283 288 291 293 295 296 298 297 298 300 294 286 279 269 245 244 261 292 307 307 302 290 280
268 261 260 262 262 252 234 231 232 238 241 235 242 255 255 261 256 244 250 273 270 258 247 250 244 217 205 195 200 197 197 202 206 211 214 219 219 224 233 238 240 239 241 241 243 248 246 251 267 278 290 288 280 273 129 198 225 256 279 290 292 290 288 284 281 283 285 290 291 295 300 300 287 272 268 230 226 221 217 230 251 269 282 287 289
272 270 262 266 260 239 235 236 239 232 230 230 221 230 235 250 242 253 242 195 255 261 270 251 243 221 219 214 207 209 214 214 213 218 222 226 228 233 234 238 237 232 233 238 240 248 256 250 263 271 276 276 280 144 162 194 225 216 239 283 291 288 286 285 285 289 289 291 295 294 298 300 293 297 301 275 228 212 213 208 222 245 251 258 263
270 274 273 265 263 257 240 235 234 231 229 223 218 229 247 253 246 241 232 236 234 250 257 255 248 240 236 232 234 238 237 226 225 235 231 236 239 242 242 239 238 238 240 239 243 248 251 253 248 263 281 279 280 158 182 197 221 220 214 257 275 286 288 287 287 285 287 290 293 293 295 293 294 283 276 278 288 248 198 205 220 224 234 237 241
267 263 263 263 262 257 249 237 237 236 235 245 259 243 241 251 257 243 242 241 252 241 245 261 256 248 242 236 242 245 249 246 243 239 235 241 242 245 247 245 246 239 238 246 248 247 254 254 254 262 268 279 273 158 180 189 219 220 209 228 275 281 286 287 282 285 289 290 292 292 292 293 297 290 282 282 290 297 296 272 257 266 267 230 218
261 256 254 254 248 245 243 231 228 234 233 222 225 230 232 237 238 248 244 252 250 260 256 250 256 263 255 245 249 245 247 253 250 242 240 246 248 250 246 242 239 241 241 243 244 245 245 254 256 255 261 264 260 140 177 197 219 215 204 228 267 278 280 281 279 278 279 280 286 285 289 292 294 287 285 343 290 291 292 287 288 287 285 289 276
259 257 251 245 233 229 230 231 233 231 226 225 231 230 238 242 247 252 253 250 259 262 260 260 261 256 258 254 250 250 251 251 251 246 242 245 244 244 248 243 242 242 242 246 249 250 250 248 248 251 257 255 248 165 196 209 226 212 198 242 265 278 277 273 279 280 277 283 286 287 289 290 296 286 105 94 23 310 296 287 286 288 288 287 283
256 251 249 241 233 227 229 234 231 227 229 226 234 230 232 241 243 247 251 257 257 262 269 268 260 261 263 264 261 259 256 256 257 255 249 249 250 248 244 244 243 242 241 238 243 244 243 245 247 249 251 254 263 182 189 209 214 186 205 267 271 281 288 284 282 286 285 284 281 285 289 296 300 297 91 115 122 288 290 286 285 288 292 288 289
253 243 237 232 226 221 218 221 227 228 229 235 231 229 233 240 245 247 249 253 258 260 263 267 269 269 265 261 261 263 262 257 255 254 254 252 251 253 254 240 243 247 242 244 250 248 244 246 241 247 245 256 265 190 175 203 195 182 229 273 279 271 280 286 283 285 285 284 293 266 229 281 290 320 106 109 177 264 282 279 284 287 288 289 290
239 237 237 234 226 221 217 211 223 232 231 228 224 222 231 241 247 250 253 257 260 265 268 270 273 276 279 278 275 269 266 265 263 261 256 253 248 245 245 246 243 246 249 253 249 253 254 250 243 240 231 240 259 236 177 210 188 179 206 260 270 274 280 290 294 294 291 291 282 271 183 223 259 344 342 234 232 265 281 281 283 287 282 281 285
230 221 228 234 224 204 211 217 220 230 236 232 217 219 225 240 249 252 254 255 259 264 270 272 272 272 275 276 267 257 255 258 262 263 260 255 256 255 250 247 248 254 260 259 256 259 258 259 249 231 227 225 244 252 206 195 186 181 208 254 275 279 280 283 288 289 299 287 288 290 180 166 137 223 269 277 256 246 272 283 283 272 277 275 298
236 227 209 215 211 217 225 225 227 233 238 227 213 220 228 234 244 250 250 253 259 262 264 267 270 271 269 270 271 260 253 250 256 261 261 256 253 253 252 245 249 254 258 259 254 260 255 252 247 238 238 232 233 241 226 190 192 185 193 213 251 268 278 283 285 289 283 291 300 296 351 147 187 182 256 264 259 244 245 269 266 265 273 326 341
245 224 206 223 224 222 226 232 234 236 232 216 209 221 233 241 242 242 246 251 256 259 258 256 256 259 263 266 265 258 251 254 259 261 255 251 249 249 245 244 251 255 250 251 253 253 254 254 252 243 237 237 220 210 244 194 197 189 190 201 248 261 290 288 290 282 280 288 300 316 304 123 122 314 275 281 279 272 251 254 265 270 287 289 282
232 221 216 222 231 229 228 231 231 229 222 217 212 223 234 239 241 242 245 251 256 255 249 251 252 253 251 250 253 248 240 241 248 250 252 252 250 243 237 239 244 246 247 247 250 254 257 258 255 253 245 235 231 206 205 225 193 188 189 200 223 253 321 264 279 278 282 280 276 294 286 100 355 314 300 285 276 264 246 244 247 254 258 267 277
250 248 239 210 231 240 239 237 238 232 223 216 210 222 230 235 239 240 245 252 247 238 243 247 237 238 243 242 245 244 243 244 248 248 247 250 248 247 245 243 238 241 249 250 255 254 253 256 259 254 246 243 230 237 189 204 205 186 190 201 212 228 247 249 271 269 277 283 282 274 3 19 321 304 293 287 281 272 259 270 279 284 281 272 256
258 251 242 230 233 237 240 243 240 234 223 220 213 222 225 229 236 239 243 243 236 231 224 229 231 233 236 240 246 250 252 249 246 235 244 248 248 245 249 246 238 241 249 255 257 257 257 259 259 255 258 256 252 245 243 193 200 185 194 199 210 215 224 235 255 255 252 269 16 26 320 291 287 283 281 280 272 258 250 251 259 270 269 241 226
258 254 242 238 244 247 247 248 246 237 227 221 220 218 222 226 233 236 242 242 230 223 222 227 233 236 238 239 244 247 250 250 236 239 243 254 261 255 249 252 245 248 252 254 258 260 261 258 254 255 257 261 256 259 250 214 180 197 199 203 206 206 216 213 227 272 308 320 293 277 278 275 269 260 258 269 291 320 250 259 261 257 249 250 246
261 261 256 245 241 242 243 242 248 246 237 229 223 222 226 232 236 241 238 228 221 218 221 226 230 233 234 236 238 248 254 245 232 237 249 254 253 254 252 252 253 253 254 259 259 260 261 260 259 259 260 258 256 256 249 248 228 212 207 190 182 206 212 221 229 240 246 249 240 236 244 240 259 277 271 266 265 270 258 238 237 251 252 233 231
261 266 250 249 244 244 248 248 249 249 243 238 233 228 227 230 236 240 238 222 216 212 221 228 229 232 241 236 235 213 225 255 253 245 250 251 252 252 253 253 257 259 264 259 259 263 263 265 266 264 258 254 253 251 252 248 240 238 256 245 201 185 179 195 223 232 231 241 249 210 215 232 234 243 250 247 218 215 246 282 267 282 278 240 236
277 265 243 247 253 250 249 251 253 255 254 248 244 239 235 231 234 237 230 220 216 212 217 228 229 233 236 234 236 239 238 244 249 251 249 257 262 255 254 261 257 261 262 266 272 271 263 260 265 266 265 264 264 259 268 31 60 56 346 280 273 284 292 278 25 25 291 276 254 251 269 266 270 268 269 274 273 275 279 274 267 257 257 246 238
277 273 256 250 247 249 253 255 259 259 257 257 256 253 249 244 240 236 227 225 224 221 218 221 225 231 233 230 232 234 239 243 248 252 253 244 208 235 265 267 275 165 275 324 301 264 282 306 283 275 276 275 271 6 89 79 96 123 121 302 323 335 347 337 41 20 327 271 263 263 268 276 279 285 280 284 286 286 279 281 263 215 239 256 252
283 276 268 258 255 251 253 256 259 263 264 264 262 261 260 253 244 233 229 229 230 227 224 223 222 228 228 230 229 236 237 244 244 246 245 255 262 206 215 229 238 234 205 236 242 253 274 274 264 269 271 269 294 298 202 154 167 181 196 218 238 255 263 228 174 193 232 244 254 254 257 261 270 258 264 271 276 274 251 252 273 266 249 241 238